Location: Clanezzo
(45.7500°N, 9.6000°E)
Time: 04:05:03
(UTC+00:00)

Cosmos 1151 Rocket - Pass Details

Date: 12 May 2021
Orbit: 591 x 616 km, 82.5° (Epoch: 18 June)

Event Time Altitude Azimuth Distance (km) Brightness Sun altitude
Exits shadow 20:07:50 - 193° (SSW) 2,855 6.2 -12.8°
Reaches altitude 10° 20:10:01 10° 196° (SSW) 1,964 5.4 -13.1°
Maximum altitude 20:14:21 70° 279° (W) 658 3.3 -13.6°
Drops below altitude 10° 20:18:45 10° 4° (N) 1,989 6.3 -14.1°
Sets 20:21:01 0° 7° (N) 2,900 7.1 -14.4°
